Regional Weather Roundup
Issued by NWS Wilmington, NC

Home | Current Version | Previous Version | Text Only | Print | Product List | Glossary On
Versions: 1 2 3 4 5 6 7 8 9 10 11 12 13 14 15 16 17 18 19 20 21 22 23 24 25 26 27 28 29 30 31 32 33 34 35 36 37 38 39 40 41 42 43 44 45 46 47 48 49 50
000
ASUS42 KILM 041513
RWRILM
RWRILM
REGIONAL HOURLY WEATHER ROUNDUP
NATIONAL WEATHER SERVICE WILMINGTON NC
1100 AM EDT SAT JUL 04 2015

NOTE: "FAIR" INDICATES FEW OR NO CLOUDS BELOW 12,000 FEET WITH NO
SIGNIFICANT WEATHER AND/OR OBSTRUCTIONS TO VISIBILITY.

...............WFO WILMINGTON COUNTY WARNING AREA...............

......COASTAL NC AND SC COUNTIES......

CITY           SKY/WX    TMP DP  RH WIND       PRES   REMARKS
WILMINGTON     MOSUNNY   86  69  56 W16       30.02F HX  90
N MYRTLE BEACH MOSUNNY   85  68  56 W13       30.05R
MYRTLE BEACH   SUNNY     88  70  55 W12       30.07R HX  92

......INLAND NC AND SC COUNTIES.......

CITY           SKY/WX    TMP DP  RH WIND       PRES   REMARKS
LUMBERTON      PTSUNNY   79  70  74 SW14      30.01S
ELIZABETHTOWN  PTSUNNY   80  68  65 SW10G18   30.01S
WHITEVILLE     CLOUDY    81  70  68 SW12      30.03R
FLORENCE       PTSUNNY   81  69  67 W10       30.04R
DARLINGTON     NOT AVBL

....................REST OF NORTH CAROLINA......................

.........EASTERN NC.........

CITY           SKY/WX    TMP DP  RH WIND       PRES   REMARKS
CAPE HATTERAS  SUNNY     81  73  76 SW7       29.99R
JACKSONVILLE   SUNNY     86  68  54 SW13G18   29.99F
MOREHEAD CITY  MOSUNNY   85  71  63 SW17G26   30.00S HX  90
KENANSVILLE    MOSUNNY   82  69  65 SW6       30.00S
NEW BERN       SUNNY     86  71  60 SW12G23   29.99S HX  91
ELIZABETH CITY MOSUNNY   82  71  69 W14       29.93S

.........CENTRAL NC.........

CITY           SKY/WX    TMP DP  RH WIND       PRES   REMARKS
RALEIGH DURHAM PTSUNNY   81  70  69 W10G18    29.97S
ROCKY MOUNT    SUNNY     85  70  60 W10G22    29.95F
ROANOKE RAPIDS NOT AVBL
FAYETTEVILLE   MOSUNNY   82  69  64 SW15      29.99R
HOFFMAN        MOSUNNY   83  69  62 SW13G24   30.03R

.........WESTERN NC.........

CITY           SKY/WX    TMP DP  RH WIND       PRES   REMARKS
CHARLOTTE      CLOUDY    80  64  58 W12G25    30.01R
GREENSBORO     CLOUDY    76  69  79 W8        29.98R
HICKORY        NOT AVBL
BOONE          NOT AVBL
ASHEVILLE      NOT AVBL

.....................REST OF SOUTH CAROLINA.....................

.........EASTERN SC.........

CITY           SKY/WX    TMP DP  RH WIND       PRES   REMARKS
CHARLESTON     MOSUNNY   85  69  58 W9        30.08R
BEAUFORT MCAS  MOSUNNY   85  70  60 VRB6      30.09S
HILTON HEAD    PTSUNNY   84  73  70 S3        30.11R HX  91

.........CENTRAL SC.........

CITY           SKY/WX    TMP DP  RH WIND       PRES   REMARKS
COLUMBIA       CLOUDY    79  67  66 SW8       30.06R
ORANGEBURG     CLOUDY    78  68  71 W6        30.08R
SUMTER SHAW    PTSUNNY   78  68  72 SW13      30.05R

.........WESTERN SC.........

CITY           SKY/WX    TMP DP  RH WIND       PRES   REMARKS
GREENVILLE     NOT AVBL
ROCK HILL      PTSUNNY   80  66  62 SW15G24   30.03R
ANDERSON       LGT RAIN  73  66  78 SW17G24   30.07S
CLEMSON        NOT AVBL
GREENWOOD      CLOUDY    76  67  73 W15G23    30.09R


...................COASTAL AND OFFSHORE REPORTS..................

................LOCAL PIERS AND NC RESERVE................


STATION/POSITION TIME  SKY/WX   TEMP    WIND        PRES    VSBY
                                AIR SEA DIR/SP/G
                 (UTC)          (F)     (DEG/KT/KT) (MB)    (MI)
JOHNY MRCER PIER 1400            82 79  250/ 18/ 22 1016.2R
NC RESRV MASNBRO NOT AVBL
OCEAN CREST PIER NOT AVBL
SPRINGMAID  PIER 1400            81 81  200/ 12/ 14 1017.5F


................COASTAL AND OFFSHORE BUOYS................


STATION/POSITION TIME  SKY/WX   TEMP    WIND        PRES    VSBY
                                AIR SEA DIR/SP/G
                 (UTC)          (F)     (DEG/KT/KT) (MB)    (MI)
DIMNDSHOAL 41025 1450            81 82  240/ 19/ 23 1015.3R
WVE H/P(F/S)=  6/ 7 WND WVE H/P(F/S)=  5/ 6 SWL H/P/D(F/S/D)=  5/210/ 7

CAPE LOOKOUT     1500            82     250/ 18/ 24 1015.8R
ONSLOW BAY 41036 NOT AVBL
5 WRITEBCH 41038 NOT AVBL
MASONBORO  41110 1419               78                N/A
WVE H/P(F/S)=  4/ 6 WND WVE H/P(F/S)=  3/ 6

WILM HARBR 41108 1411               81                N/A
WVE H/P(F/S)=  5/ 6 WND WVE H/P(F/S)=  5/ 6

27WRITEBCH 41037 1400               80  260/ 19/ 23   N/A
FRYING PAN 41013 1450            80 78  230/ 12/ 14 1018.3R
WVE H/P(F/S)=  5/ 6 WND WVE H/P(F/S)=  3/ 5 SWL H/P/D(F/S/D)=  3/190/ 6

SUNST NRSH 41024 1408            81     250/ 14/ 19 1017.0S
CAPRS NRSH 41029 1408            80     230/  8/ 10 1018.6R
EDISTO     41004 1450            81 81  240/ 12/ 14 1018.1R
WVE H/P(F/S)=  5/ 6 WND WVE H/P(F/S)=  3/ 4 SWL H/P/D(F/S/D)=  3/ 6



..........OFFSHORE BUOYS BEYOND 100 NM OFFSHORE...........
.....IN A TRIANGLE---HAT TO BERMUDA TO BAHAMAS TO HAT.....


STATION/POSITION TIME  SKY/WX   TEMP    WIND        PRES    VSBY
                                AIR SEA DIR/SP/G
                 (UTC)          (F)     (DEG/KT/KT) (MB)    (MI)
150E HAT   41001 NOT AVBL
W BERMUDA  41048 1450            81 81  200/ 12/ 14 1022.8R
WVE H/P(F/S)=  5/ 8 WND WVE H/P(F/S)=  2/ 5 SWL H/P/D(F/S/D)=  3/210/ 8

ATLANTIC S 41049 1450            82 84  100/ 10/ 12 1025.5R
WVE H/P(F/S)=  4/ 8 WND WVE H/P(F/S)=  2/ 4 SWL H/P/D(F/S/D)=  3/130/ 8

E BAHAMAS  41046 1450            83 83  120/ 14/ 16 1022.2R
WVE H/P(F/S)=  5/ 9 WND WVE H/P(F/S)=  3/ 6 SWL H/P/D(F/S/D)=  3/100/ 9

NE BAHAMAS 41047 1450            83 84  150/ 12/ 16 1022.6R
WVE H/P(F/S)=  4/ 8 WND WVE H/P(F/S)=  2/ 4 SWL H/P/D(F/S/D)=  3/120/ 8

120E CANVRL41010 1420            83 84  170/  8/  8 1021.4R

END


USA.gov is the U.S. government's official web portal to all federal, state and local government web resources and services.